Flag for U.S.A. Weather past 2 weeks in Juneau, Alaska, U.S.A.

Now
34 °F

Partly sunny.


Feels Like: 34 °F
Forecast: 36 / 44 °F
Wind: No wind

Location: Juneau International Airport

Current Time: Mar 28, 2015 at 9:06:43 AM

Latest Report: Mar 28, 2015 at 7:53 AM


Visibility: 10 mi

Pressure: 29.79 "Hg

Humidity: 100%

Dew point: 34 °F

Location of JuneauLocation

Historic Weather in Juneau — Graph

°F

Juneau temperature yesterday

Maximum temperature yesterday: 44 °F (at 4:53 PM)
Minimum temperature yesterday: 39 °F (at 9:53 PM)
Average temperature yesterday: 42 °F

Past Weeks' High & Low Weather Summary

 TemperatureHumidityPressure
High50 °F (Mar 25, 12:53 PM)100% (Mar 18, 7:53 AM)30.20 "Hg (Mar 18, 7:53 AM)
Low25 °F (Mar 16, 5:53 AM)28% (Mar 25, 12:53 PM)29.44 "Hg (Mar 13, 7:53 AM)
Average37 °F82%29.89 "Hg
* Reported Mar 13 7:53 AM — Mar 28 7:53 AM, Juneau, Weather by CustomWeather, © 2015

Note: Actual official high and low records may vary slightly from our data, if they occured in-between our weather recording intervals... More about our weather records

Advertising

Juneau weather history for previous 24 hours

 ConditionsComfort  
Time TempWeatherWind HumidityBarometerVisibility
7:53 AM
Sat, Mar 28
34 °FPartly sunny.No wind100%29.79 "Hg10 mi
6:53 AM35 °FPassing clouds.No wind96%29.80 "Hg10 mi
5:53 AM36 °FMostly cloudy.No wind97%29.81 "Hg10 mi
4:53 AM38 °FMostly cloudy.8 mph90%29.82 "Hg10 mi
3:53 AM38 °FMostly cloudy.9 mph93%29.83 "Hg10 mi
2:53 AM37 °FPassing clouds.9 mph93%29.84 "Hg10 mi
1:53 AM37 °FPassing clouds.8 mph96%29.84 "Hg10 mi
1:02 AM38 °FPassing clouds.13 mph93%29.84 "Hg10 mi
12:53 AM39 °FLight rain. Passing clouds.10 mph89%29.84 "Hg10 mi
11:53 PM
Fri, Mar 27
40 °FLight rain. Overcast.10 mph89%29.85 "Hg10 mi
10:53 PM40 °FLight rain. Mostly cloudy.8 mph89%29.85 "Hg10 mi
9:53 PM39 °FPassing clouds.10 mph93%29.85 "Hg10 mi
8:53 PM40 °FPassing clouds.10 mph89%29.84 "Hg10 mi
7:53 PM41 °FBroken clouds.9 mph89%29.84 "Hg10 mi
6:53 PM42 °FLight rain. Mostly cloudy.7 mph85%29.84 "Hg10 mi
5:53 PM42 °FPartly sunny.10 mph85%29.83 "Hg10 mi
4:53 PM44 °FBroken clouds.10 mph82%29.85 "Hg10 mi
3:53 PM43 °FPartly sunny.8 mph86%29.86 "Hg10 mi
2:53 PM43 °FBroken clouds.7 mph86%29.86 "Hg10 mi
1:53 PM42 °FLight rain. Mostly cloudy.9 mph89%29.88 "Hg10 mi
12:53 PM43 °FLight rain. Mostly cloudy.6 mph82%29.88 "Hg7 mi
11:53 AM43 °FRain. Mostly cloudy.No wind86%29.88 "Hg8 mi
10:53 AM43 °FLight rain. Mostly cloudy.3 mph89%29.88 "Hg7 mi
9:53 AM42 °FMostly cloudy.7 mph89%29.88 "Hg10 mi
Weather by CustomWeather, © 2015

See weather overviewHow to use our weather pages